Location: Barcelona
(41.3830°N, 2.1830°E)
Time: 19:28:03
(UTC+01:00)

ISS - Pass Details

Date: 18 January 2021
Orbit: 418 x 421 km, 51.6° (Epoch: 24 January)

Event Time Altitude Azimuth Distance (km) Brightness Sun altitude
Rises 18:35:25 0° 192° (SSW) 2,353 0.5 -8.6°
Reaches altitude 10° 18:38:07 10° 169° (SSE) 1,495 -0.9 -9.1°
Maximum altitude 18:40:10 15° 131° (SE) 1,216 -1.7 -9.4°
Enters shadow 18:41:52 11° 98° (E) 1,420 -1.6 -9.7°
